Ponca City, OK

3:44 PM CST on November 14, 2019 (GMT -0600)
Ponca City Municipal

Weather History for KPNC - July, 2019

Change the Weather History Date:

Wednesday, July 10, 2019

  Actual Average Record
Temperature  
Mean Temperature 86 °F -  
Max Temperature 93 °F 97 °F 109 °F (2011)
Min Temperature 78 °F 72 °F 59 °F (1959)
Cooling Degree Days 20    
Growing Degree Days 36 (Base 50)    
Moisture  
Dew Point 72 °F    
Average Humidity 67    
Maximum Humidity 88    
Minimum Humidity 44    
Precipitation  
Precipitation 0.00 in - - ()
Sea Level Pressure  
Sea Level Pressure 29.98 in    
Wind  
Wind Speed 8 mph (East)    
Max Wind Speed 20 mph    
Max Gust Speed 28 mph    
Visibility 10 miles    
Events      
Averages and records for this station are not official NWS values.
T = Trace of Precipitation, MM = Missing Value Source: NWS Daily Summary

Daily Weather History Graph

Daily Weather History Graph

Search for Another Location

Airport or City:

Astronomy

Jul. 10, 2019 Rise Set
Actual Time 6:17 AM CDT 8:49 PM CDT
Civil Twilight 5:47 AM CDT 9:19 PM CDT
Nautical Twilight 5:10 AM CDT 9:56 PM CDT
Astronomical Twilight 4:28 AM CDT 10:38 PM CDT
Moon 3:02 PM CDT (7/10) 1:51 AM CDT (7/10)
Length of Visible Light 15h 31m
Length of Day
14h 31m
Waxing Gibbous, 64% of the Moon is Illuminated
Jul 10
Waxing Gibbous
Jul 16
Full
Jul 24
Last Quarter
Jul 31
New
Aug 7
First Quarter

Hourly Weather History & Observations

Time (CDT) Temp. Heat Index Dew Point Humidity Pressure Visibility Wind Dir Wind Speed Gust Speed Precip Events Conditions
12:53 AM 82.9 °F 90.8 °F 75.9 °F 79% 29.92 in 10.0 mi SSE 9.2 mph - N/A   Clear
1:53 AM 82.9 °F 90.2 °F 75.0 °F 77% 29.91 in 10.0 mi SSE 10.4 mph - N/A   Clear
2:53 AM 82.0 °F 88.6 °F 75.0 °F 79% 29.91 in 10.0 mi South 6.9 mph - N/A   Clear
3:53 AM 80.1 °F 85.1 °F 75.0 °F 85% 29.91 in 10.0 mi SE 8.1 mph - N/A   Clear
4:53 AM 80.1 °F 85.1 °F 75.0 °F 85% 29.91 in 10.0 mi SSE 8.1 mph - N/A   Clear
5:53 AM 79.0 °F - 75.0 °F 88% 29.93 in 10.0 mi SE 4.6 mph - N/A   Clear
6:53 AM 80.1 °F 85.1 °F 75.0 °F 85% 29.94 in 10.0 mi Calm Calm - N/A   Clear
7:53 AM 82.0 °F 88.6 °F 75.0 °F 79% 29.95 in 10.0 mi South 4.6 mph - N/A   Clear
8:53 AM 84.9 °F 94.1 °F 75.9 °F 74% 29.98 in 10.0 mi Calm Calm - N/A   Clear
9:53 AM 88.0 °F 98.5 °F 75.9 °F 67% 30.01 in 10.0 mi North 6.9 mph - N/A   Mostly Cloudy
10:53 AM 90.0 °F 101.3 °F 75.9 °F 63% 30.01 in 10.0 mi NNE 5.8 mph - N/A   Scattered Clouds
11:53 AM 86.0 °F 93.0 °F 73.0 °F 65% 30.03 in 10.0 mi NE 19.6 mph 26.5 mph N/A   Mostly Cloudy
12:53 PM 90.0 °F 96.4 °F 71.1 °F 54% 30.01 in 10.0 mi ENE 16.1 mph 27.6 mph N/A   Clear
1:53 PM 87.1 °F 92.8 °F 71.1 °F 59% 30.00 in 10.0 mi ENE 13.8 mph - N/A   Clear
2:53 PM 90.0 °F 94.5 °F 69.1 °F 50% 29.99 in 10.0 mi ENE 12.7 mph - N/A   Clear
3:53 PM 91.0 °F 95.6 °F 69.1 °F 48% 29.98 in 10.0 mi East 12.7 mph - N/A   Clear
4:53 PM 91.9 °F 95.9 °F 68.0 °F 45% 29.97 in 10.0 mi ESE 6.9 mph - N/A   Clear
5:53 PM 93.0 °F 97.4 °F 68.0 °F 44% 29.96 in 10.0 mi East 4.6 mph - N/A   Clear
6:53 PM 91.0 °F 95.2 °F 68.0 °F 47% 29.99 in 10.0 mi ENE 10.4 mph - N/A   Clear
7:53 PM 88.0 °F 92.9 °F 70.0 °F 55% 30.00 in 10.0 mi ENE 6.9 mph - N/A   Clear
8:53 PM 84.0 °F 87.8 °F 69.1 °F 61% 30.00 in 10.0 mi East 8.1 mph - N/A   Clear
9:53 PM 82.0 °F 86.3 °F 71.1 °F 69% 30.03 in 10.0 mi Calm Calm - N/A   Clear
10:53 PM 78.1 °F - 72.0 °F 81% 30.04 in 10.0 mi NNE 6.9 mph - N/A   Clear
11:53 PM 79.0 °F - 71.1 °F 77% 30.05 in 10.0 mi NE 5.8 mph - N/A   Clear